Flag for U.S.A. Weather past 2 weeks in Norfolk, Virginia, U.S.A.

Now
34 °F

Overcast.


Feels Like: 24 °F
Forecast: 23 / 35 °F
Wind: 15 mph from Northeast

Location: Norfolk Naval Air Station

Current Time: Feb 27, 2015 at 6:04:53 PM

Latest Report: Feb 27, 2015 at 4:59 PM


Visibility: 9 mi

Pressure: 30.48 "Hg

Humidity: 67%

Dew point: 24 °F

Location of NorfolkLocation

Historic Weather in Norfolk — Graph

°F

Norfolk temperature yesterday

Maximum temperature yesterday: 35 °F (at 12:04 AM)
Minimum temperature yesterday: 31 °F (at 11:59 PM)
Average temperature yesterday: 34 °F

Past Weeks' High & Low Weather Summary

 TemperatureHumidityPressure
High52 °F (Feb 22, 2:59 PM)89% (Feb 22, 9:59 AM)30.58 "Hg (Feb 22, 9:59 AM)
Low11 °F (Feb 20, 5:59 AM)18% (Feb 15, 3:59 PM)29.50 "Hg (Feb 14, 7:59 PM)
Average30 °F55%30.13 "Hg
* Reported Feb 12 4:01 PM — Feb 27 4:59 PM, Norfolk, Weather by CustomWeather, © 2015

Note: Actual official high and low records may vary slightly from our data, if they occured in-between our weather recording intervals... More about our weather records

Advertising

Norfolk weather history for previous 24 hours

 ConditionsComfort  
Time TempWeatherWind HumidityBarometerVisibility
4:59 PM
Fri, Feb 27
34 °FOvercast.15 mph67%30.48 "Hg9 mi
3:59 PM34 °FBroken clouds.17 mph67%30.46 "Hg8 mi
2:59 PM35 °FBroken clouds.17 mph67%30.45 "Hg8 mi
1:59 PM36 °FScattered clouds.16 mph62%30.42 "Hg10 mi
12:59 PM36 °FPartly sunny.12 mph62%30.41 "Hg9 mi
11:59 AM38 °FPartly sunny.7 mph58%30.40 "Hg10 mi
10:59 AM37 °FPassing clouds.7 mph65%30.39 "Hg9 mi
9:59 AM37 °FPassing clouds.3 mph65%30.37 "Hg7 mi
8:59 AM35 °FScattered clouds.5 mph75%30.37 "Hg5 mi
7:59 AM31 °FIce fog.5 mph82%30.34 "Hg4 mi
6:59 AM27 °FIce fog.No wind85%30.29 "Hg2 mi
5:59 AM28 °FIce fog.3 mph81%30.27 "Hg5 mi
4:59 AM29 °FIce fog.6 mph82%30.25 "Hg6 mi
3:59 AM29 °FIce fog.6 mph79%30.22 "Hg5 mi
2:59 AM30 °FClear.7 mph82%30.20 "Hg8 mi
1:59 AM29 °FIce fog.5 mph82%30.20 "Hg5 mi
12:59 AM30 °FIce fog.No wind82%30.19 "Hg4 mi
11:59 PM
Thu, Feb 26
31 °FIce fog.5 mph79%30.17 "Hg6 mi
10:59 PM33 °FPassing clouds.5 mph78%30.15 "Hg8 mi
9:59 PM33 °FPassing clouds.6 mph78%30.12 "Hg8 mi
8:59 PM34 °FOvercast.7 mph76%30.11 "Hg9 mi
7:59 PM34 °FFog.9 mph76%30.10 "Hg6 mi
6:59 PM34 °FFog.14 mph79%30.09 "Hg5 mi
Weather by CustomWeather, © 2015

See weather overviewHow to use our weather pages